AUR86DB EGJB-EIDW

Flight info

Callsign AUR86DB
Flight time 1h 11m
Altitude 18000
Route SKERY L22 EMWIP P16 FIMCA N22 BHD DCT NICXI M17 VATRY VATRY4L
Aircraft AT76/M-SDFGIRY/S

Departure

Time 2026-04-26 13:08
Airport Guernsey Airport (EGJB)

Arrival

Time 2026-04-26 14:19
Airport Dublin Airport (EIDW)
Time Latitude Longitude Altitude Speed Heading
2026-04-26 12:54 49.43255 -2.59684 322 ft 0 kts 177°
2026-04-26 13:01 49.43278 -2.59685 323 ft 4 kts 177°
2026-04-26 13:01 49.43305 -2.59687 325 ft 4 kts 177°
2026-04-26 13:01 49.43332 -2.59688 325 ft 4 kts 177°
2026-04-26 13:02 49.43357 -2.59690 325 ft 2 kts 177°
2026-04-26 13:02 49.43358 -2.59690 325 ft 0 kts 177°
2026-04-26 13:03 49.43357 -2.59691 325 ft 1 kts 194°
2026-04-26 13:04 49.43357 -2.59705 322 ft 4 kts 271°
2026-04-26 13:04 49.43346 -2.59806 323 ft 13 kts 266°
2026-04-26 13:04 49.43341 -2.59974 312 ft 12 kts 267°
2026-04-26 13:04 49.43336 -2.60148 300 ft 20 kts 270°
2026-04-26 13:05 49.43332 -2.60323 291 ft 15 kts 267°
2026-04-26 13:05 49.43327 -2.60492 292 ft 16 kts 268°
2026-04-26 13:05 49.43333 -2.60655 292 ft 14 kts 279°
2026-04-26 13:05 49.43349 -2.60794 296 ft 12 kts 280°
2026-04-26 13:06 49.43361 -2.60901 303 ft 10 kts 280°
2026-04-26 13:06 49.43363 -2.61046 307 ft 16 kts 267°
2026-04-26 13:06 49.43358 -2.61210 309 ft 15 kts 268°
2026-04-26 13:06 49.43407 -2.61332 312 ft 13 kts 317°
2026-04-26 13:07 49.43463 -2.61325 312 ft 7 kts 66°
2026-04-26 13:07 49.43476 -2.60962 307 ft 69 kts 88°
2026-04-26 13:07 49.43507 -2.59925 367 ft 116 kts 89°
2026-04-26 13:07 49.43545 -2.58634 858 ft 122 kts 87°
2026-04-26 13:08 49.43604 -2.57332 1488 ft 123 kts 87°
2026-04-26 13:08 49.43668 -2.56027 2162 ft 122 kts 88°
2026-04-26 13:08 49.43730 -2.54717 2782 ft 125 kts 87°
2026-04-26 13:08 49.43792 -2.53250 2967 ft 149 kts 89°
2026-04-26 13:09 49.43856 -2.51528 3091 ft 172 kts 88°
2026-04-26 13:09 49.44072 -2.49676 3399 ft 181 kts 61°
2026-04-26 13:09 49.45053 -2.48527 3810 ft 184 kts 14°
2026-04-26 13:09 49.46354 -2.48776 3910 ft 201 kts 330°
2026-04-26 13:10 49.47502 -2.50113 3947 ft 215 kts 318°
2026-04-26 13:10 49.48659 -2.51698 3992 ft 230 kts 317°
2026-04-26 13:10 49.49875 -2.53390 4013 ft 241 kts 317°
2026-04-26 13:10 49.51087 -2.55041 4664 ft 223 kts 317°
2026-04-26 13:11 49.52224 -2.56527 5303 ft 207 kts 320°
2026-04-26 13:11 49.53302 -2.57889 5899 ft 195 kts 321°
2026-04-26 13:11 49.54329 -2.59174 6450 ft 187 kts 321°
2026-04-26 13:11 49.55342 -2.60440 6837 ft 188 kts 321°
2026-04-26 13:12 49.56356 -2.61714 7195 ft 189 kts 321°
2026-04-26 13:12 49.57379 -2.62997 7556 ft 190 kts 321°
2026-04-26 13:12 49.58395 -2.64278 7910 ft 192 kts 320°
2026-04-26 13:12 49.59432 -2.65585 8255 ft 193 kts 320°
2026-04-26 13:13 49.60474 -2.66903 8590 ft 195 kts 320°
2026-04-26 13:13 49.61526 -2.68233 8951 ft 197 kts 320°
2026-04-26 13:13 49.62587 -2.69575 9302 ft 198 kts 320°
2026-04-26 13:13 49.63660 -2.70904 9688 ft 198 kts 319°
2026-04-26 13:14 49.64726 -2.72237 10067 ft 197 kts 319°
2026-04-26 13:14 49.65797 -2.73576 10387 ft 199 kts 320°
2026-04-26 13:14 49.66874 -2.74916 10727 ft 199 kts 319°
2026-04-26 13:14 49.67952 -2.76266 11063 ft 200 kts 319°
2026-04-26 13:15 49.69031 -2.77627 11389 ft 201 kts 319°
2026-04-26 13:15 49.70111 -2.78996 11705 ft 201 kts 318°
2026-04-26 13:15 49.71195 -2.80373 12010 ft 202 kts 318°
2026-04-26 13:15 49.71914 -2.81287 12215 ft 202 kts 318°
2026-04-26 13:16 49.73370 -2.83140 12629 ft 203 kts 317°
2026-04-26 13:16 49.74464 -2.84531 12931 ft 204 kts 317°
2026-04-26 13:16 49.75560 -2.85925 13228 ft 204 kts 317°
2026-04-26 13:16 49.76660 -2.87324 13523 ft 205 kts 317°
2026-04-26 13:17 49.78870 -2.90142 14079 ft 207 kts 316°
2026-04-26 13:17 49.79980 -2.91560 14327 ft 207 kts 316°
2026-04-26 13:18 49.82215 -2.94416 14808 ft 209 kts 316°
2026-04-26 13:18 49.83338 -2.95852 15043 ft 210 kts 315°
2026-04-26 13:18 49.85216 -2.98253 15425 ft 211 kts 315°
2026-04-26 13:19 49.86352 -2.99698 15632 ft 212 kts 317°
2026-04-26 13:19 49.87617 -3.00932 15841 ft 217 kts 325°
2026-04-26 13:19 49.89381 -3.02405 16121 ft 218 kts 326°
2026-04-26 13:19 49.90714 -3.03529 16335 ft 218 kts 324°
2026-04-26 13:20 49.92032 -3.04707 16571 ft 219 kts 323°
2026-04-26 13:20 49.92918 -3.05523 16712 ft 219 kts 323°
2026-04-26 13:20 49.94215 -3.06724 16931 ft 221 kts 322°
2026-04-26 13:20 49.95537 -3.07945 17142 ft 221 kts 322°
2026-04-26 13:21 49.96862 -3.09171 17345 ft 222 kts 322°
2026-04-26 13:21 49.98190 -3.10400 17540 ft 223 kts 322°
2026-04-26 13:21 49.99526 -3.11635 17729 ft 224 kts 322°
2026-04-26 13:21 50.00864 -3.12875 17914 ft 224 kts 322°
2026-04-26 13:22 50.02208 -3.14122 18077 ft 226 kts 322°
2026-04-26 13:22 50.03565 -3.15381 18174 ft 229 kts 322°
2026-04-26 13:22 50.04952 -3.16665 18230 ft 235 kts 322°
2026-04-26 13:22 50.06373 -3.17985 18248 ft 240 kts 322°
2026-04-26 13:23 50.07822 -3.19331 18259 ft 245 kts 322°
2026-04-26 13:23 50.09291 -3.20709 18270 ft 249 kts 323°
2026-04-26 13:23 50.10781 -3.22119 18267 ft 252 kts 323°
2026-04-26 13:23 50.12285 -3.23539 18266 ft 254 kts 323°
2026-04-26 13:24 50.13809 -3.24964 18269 ft 256 kts 323°
2026-04-26 13:24 50.15346 -3.26390 18273 ft 258 kts 324°
2026-04-26 13:24 50.16890 -3.27823 18270 ft 259 kts 324°
2026-04-26 13:24 50.18438 -3.29264 18268 ft 259 kts 323°
2026-04-26 13:25 50.19988 -3.30711 18265 ft 260 kts 323°
2026-04-26 13:25 50.21538 -3.32163 18264 ft 260 kts 323°
2026-04-26 13:25 50.23088 -3.33615 18264 ft 260 kts 323°
2026-04-26 13:25 50.24639 -3.35069 18265 ft 260 kts 323°
2026-04-26 13:26 50.26193 -3.36525 18265 ft 260 kts 323°
2026-04-26 13:26 50.27744 -3.37979 18266 ft 260 kts 323°
2026-04-26 13:26 50.29296 -3.39435 18267 ft 260 kts 323°
2026-04-26 13:26 50.30845 -3.40890 18268 ft 260 kts 323°
2026-04-26 13:27 50.32396 -3.42350 18270 ft 260 kts 323°
2026-04-26 13:27 50.33949 -3.43810 18269 ft 260 kts 323°
2026-04-26 13:27 50.35502 -3.45273 18267 ft 261 kts 323°
2026-04-26 13:27 50.37055 -3.46735 18276 ft 261 kts 324°
2026-04-26 13:28 50.38586 -3.48186 18274 ft 261 kts 324°
2026-04-26 13:28 50.40138 -3.49651 18272 ft 261 kts 324°
2026-04-26 13:28 50.41698 -3.51106 18270 ft 261 kts 324°
2026-04-26 13:28 50.43262 -3.52551 18270 ft 261 kts 324°
2026-04-26 13:29 50.44823 -3.53993 18267 ft 260 kts 324°
2026-04-26 13:29 50.46383 -3.55439 18271 ft 260 kts 324°
2026-04-26 13:29 50.47939 -3.56886 18272 ft 260 kts 324°
2026-04-26 13:29 50.49492 -3.58338 18268 ft 260 kts 324°
2026-04-26 13:30 50.51044 -3.59791 18273 ft 260 kts 324°
2026-04-26 13:30 50.52597 -3.61242 18275 ft 260 kts 324°
2026-04-26 13:30 50.54152 -3.62696 18272 ft 260 kts 324°
2026-04-26 13:30 50.55708 -3.64149 18272 ft 260 kts 324°
2026-04-26 13:31 50.57264 -3.65604 18276 ft 260 kts 324°
2026-04-26 13:31 50.58824 -3.67064 18269 ft 261 kts 324°
2026-04-26 13:31 50.60377 -3.68531 18277 ft 261 kts 325°
2026-04-26 13:31 50.61938 -3.69997 18273 ft 261 kts 325°
2026-04-26 13:32 50.63499 -3.71456 18284 ft 261 kts 325°
2026-04-26 13:32 50.65062 -3.72915 18285 ft 262 kts 325°
2026-04-26 13:32 50.66632 -3.74389 18282 ft 262 kts 325°
2026-04-26 13:32 50.68198 -3.75865 18265 ft 262 kts 325°
2026-04-26 13:33 50.69763 -3.77339 18264 ft 262 kts 325°
2026-04-26 13:33 50.71325 -3.78812 18267 ft 261 kts 325°
2026-04-26 13:33 50.72885 -3.80284 18257 ft 261 kts 325°
2026-04-26 13:33 50.74444 -3.81753 18257 ft 261 kts 325°
2026-04-26 13:34 50.76000 -3.83223 18266 ft 260 kts 325°
2026-04-26 13:34 50.77554 -3.84693 18268 ft 260 kts 325°
2026-04-26 13:34 50.79107 -3.86162 18269 ft 260 kts 325°
2026-04-26 13:34 50.80136 -3.87136 18269 ft 260 kts 325°
2026-04-26 13:35 50.82215 -3.89110 18265 ft 261 kts 325°
2026-04-26 13:35 50.83753 -3.90572 18263 ft 262 kts 325°
2026-04-26 13:35 50.85314 -3.92052 18254 ft 262 kts 325°
2026-04-26 13:35 50.86885 -3.93541 18247 ft 264 kts 325°
2026-04-26 13:36 50.88461 -3.95038 18261 ft 265 kts 325°
2026-04-26 13:36 50.90041 -3.96540 18264 ft 265 kts 325°
2026-04-26 13:36 50.91624 -3.98048 18262 ft 266 kts 325°
2026-04-26 13:36 50.93216 -3.99563 18263 ft 267 kts 325°
2026-04-26 13:37 50.94810 -4.01082 18260 ft 268 kts 325°
2026-04-26 13:37 50.96407 -4.02606 18260 ft 268 kts 325°
2026-04-26 13:37 50.98001 -4.04131 18257 ft 268 kts 325°
2026-04-26 13:37 50.99599 -4.05659 18272 ft 268 kts 325°
2026-04-26 13:38 51.01200 -4.07190 18271 ft 269 kts 325°
2026-04-26 13:38 51.02806 -4.08729 18270 ft 270 kts 325°
2026-04-26 13:38 51.04419 -4.10272 18273 ft 271 kts 325°
2026-04-26 13:38 51.06034 -4.11821 18261 ft 271 kts 325°
2026-04-26 13:39 51.07653 -4.13375 18264 ft 272 kts 325°
2026-04-26 13:39 51.09272 -4.14930 18245 ft 271 kts 325°
2026-04-26 13:39 51.10886 -4.16483 18268 ft 271 kts 325°
2026-04-26 13:39 51.12500 -4.18034 18255 ft 271 kts 325°
2026-04-26 13:40 51.14115 -4.19588 18264 ft 271 kts 325°
2026-04-26 13:40 51.15725 -4.21141 18267 ft 270 kts 325°
2026-04-26 13:40 51.17332 -4.22692 18259 ft 270 kts 325°
2026-04-26 13:40 51.18935 -4.24240 18262 ft 269 kts 325°
2026-04-26 13:41 51.20533 -4.25783 18268 ft 269 kts 325°
2026-04-26 13:41 51.22129 -4.27327 18266 ft 268 kts 325°
2026-04-26 13:41 51.23726 -4.28870 18266 ft 268 kts 324°
2026-04-26 13:41 51.25320 -4.30411 18271 ft 268 kts 324°
2026-04-26 13:42 51.26915 -4.31960 18268 ft 268 kts 324°
2026-04-26 13:42 51.28510 -4.33514 18273 ft 269 kts 324°
2026-04-26 13:42 51.30107 -4.35066 18272 ft 269 kts 324°
2026-04-26 13:42 51.31708 -4.36621 18272 ft 269 kts 324°
2026-04-26 13:43 51.33287 -4.38155 18276 ft 270 kts 324°
2026-04-26 13:43 51.34914 -4.39738 18281 ft 270 kts 324°
2026-04-26 13:43 51.36499 -4.41283 18266 ft 271 kts 324°
2026-04-26 13:43 51.38108 -4.42852 18271 ft 271 kts 324°
2026-04-26 13:44 51.39714 -4.44417 18281 ft 270 kts 324°
2026-04-26 13:44 51.41321 -4.45987 18267 ft 271 kts 324°
2026-04-26 13:44 51.42927 -4.47557 18269 ft 271 kts 324°
2026-04-26 13:44 51.44532 -4.49127 18280 ft 270 kts 324°
2026-04-26 13:45 51.46135 -4.50696 18281 ft 270 kts 324°
2026-04-26 13:45 51.47736 -4.52264 18279 ft 270 kts 324°
2026-04-26 13:45 51.49335 -4.53836 18283 ft 270 kts 324°
2026-04-26 13:45 51.50937 -4.55412 18284 ft 270 kts 324°
2026-04-26 13:46 51.52541 -4.56987 18278 ft 270 kts 324°
2026-04-26 13:46 51.54147 -4.58563 18270 ft 271 kts 324°
2026-04-26 13:46 51.55754 -4.60144 18274 ft 271 kts 324°
2026-04-26 13:46 51.57361 -4.61724 18274 ft 271 kts 324°
2026-04-26 13:47 51.58966 -4.63308 18284 ft 271 kts 324°
2026-04-26 13:47 51.60574 -4.64892 18289 ft 271 kts 324°
2026-04-26 13:47 51.62184 -4.66483 18288 ft 272 kts 324°
2026-04-26 13:47 51.63799 -4.68082 18278 ft 273 kts 324°
2026-04-26 13:48 51.65417 -4.69681 18274 ft 273 kts 324°
2026-04-26 13:48 51.67034 -4.71281 18282 ft 272 kts 324°
2026-04-26 13:48 51.68649 -4.72879 18276 ft 272 kts 324°
2026-04-26 13:48 51.70263 -4.74480 18286 ft 272 kts 324°
2026-04-26 13:49 51.71854 -4.76058 18284 ft 272 kts 324°
2026-04-26 13:49 51.73466 -4.77659 18282 ft 272 kts 324°
2026-04-26 13:49 51.75077 -4.79264 18284 ft 272 kts 324°
2026-04-26 13:49 51.76690 -4.80867 18281 ft 272 kts 324°
2026-04-26 13:50 51.78304 -4.82473 18283 ft 272 kts 324°
2026-04-26 13:50 51.79918 -4.84080 18283 ft 273 kts 324°
2026-04-26 13:50 51.81533 -4.85692 18273 ft 273 kts 324°
2026-04-26 13:50 51.83144 -4.87302 18288 ft 272 kts 324°
2026-04-26 13:51 51.84758 -4.88914 18293 ft 272 kts 324°
2026-04-26 13:51 51.86368 -4.90522 18292 ft 272 kts 324°
2026-04-26 13:51 51.87981 -4.92135 18291 ft 272 kts 324°
2026-04-26 13:51 51.89591 -4.93748 18286 ft 272 kts 324°
2026-04-26 13:52 51.91198 -4.95359 18287 ft 272 kts 324°
2026-04-26 13:52 51.92811 -4.96978 18289 ft 272 kts 324°
2026-04-26 13:52 51.94420 -4.98593 18294 ft 272 kts 324°
2026-04-26 13:52 51.96029 -5.00213 18290 ft 272 kts 324°
2026-04-26 13:53 51.97638 -5.01831 18291 ft 272 kts 324°
2026-04-26 13:53 51.99251 -5.03455 18292 ft 272 kts 324°
2026-04-26 13:53 52.00859 -5.05075 18293 ft 272 kts 325°
2026-04-26 13:53 52.02506 -5.06599 18291 ft 273 kts 328°
2026-04-26 13:54 52.04209 -5.07987 18288 ft 274 kts 331°
2026-04-26 13:54 52.05927 -5.09329 18289 ft 274 kts 331°
2026-04-26 13:54 52.07645 -5.10672 18292 ft 274 kts 331°
2026-04-26 13:55 52.11072 -5.13407 18289 ft 274 kts 330°
2026-04-26 13:55 52.12199 -5.14327 18285 ft 274 kts 330°
2026-04-26 13:55 52.16184 -5.17575 18288 ft 274 kts 330°
2026-04-26 13:56 52.17882 -5.18969 18296 ft 274 kts 330°
2026-04-26 13:56 52.19584 -5.20362 18293 ft 274 kts 330°
2026-04-26 13:56 52.21289 -5.21750 18291 ft 274 kts 330°
2026-04-26 13:56 52.22991 -5.23145 18290 ft 274 kts 330°
2026-04-26 13:57 52.24695 -5.24539 18290 ft 274 kts 330°
2026-04-26 13:57 52.26374 -5.25918 18290 ft 274 kts 330°
2026-04-26 13:57 52.28073 -5.27314 18290 ft 274 kts 330°
2026-04-26 13:57 52.29776 -5.28711 18290 ft 274 kts 330°
2026-04-26 13:58 52.31476 -5.30113 18290 ft 274 kts 330°
2026-04-26 13:58 52.33177 -5.31512 18290 ft 274 kts 330°
2026-04-26 13:58 52.34878 -5.32913 18290 ft 274 kts 330°
2026-04-26 13:58 52.36577 -5.34316 18287 ft 274 kts 330°
2026-04-26 13:59 52.38278 -5.35719 18287 ft 274 kts 330°
2026-04-26 13:59 52.39978 -5.37119 18287 ft 274 kts 330°
2026-04-26 13:59 52.41674 -5.38524 18288 ft 273 kts 330°
2026-04-26 14:00 52.46763 -5.42741 18287 ft 273 kts 330°
2026-04-26 14:00 52.48456 -5.44147 18287 ft 273 kts 330°
2026-04-26 14:00 52.49600 -5.45097 18287 ft 273 kts 330°
2026-04-26 14:01 52.51843 -5.46963 18286 ft 273 kts 330°
2026-04-26 14:01 52.53536 -5.48371 18284 ft 273 kts 330°
2026-04-26 14:01 52.55229 -5.49776 18284 ft 273 kts 330°
2026-04-26 14:01 52.56970 -5.51001 18286 ft 274 kts 339°
2026-04-26 14:02 52.58803 -5.51898 18285 ft 275 kts 342°
2026-04-26 14:02 52.60651 -5.52727 18283 ft 275 kts 342°
2026-04-26 14:02 52.62495 -5.53586 18285 ft 275 kts 341°
2026-04-26 14:02 52.64323 -5.54514 18288 ft 274 kts 340°
2026-04-26 14:03 52.66140 -5.55472 18286 ft 274 kts 340°
2026-04-26 14:03 52.67956 -5.56429 18284 ft 274 kts 341°
2026-04-26 14:03 52.69765 -5.57372 17969 ft 285 kts 341°
2026-04-26 14:03 52.71692 -5.58358 17338 ft 294 kts 341°
2026-04-26 14:04 52.73669 -5.59368 16707 ft 300 kts 341°
2026-04-26 14:04 52.75670 -5.60404 16094 ft 303 kts 341°
2026-04-26 14:04 52.77693 -5.61460 15496 ft 306 kts 341°
2026-04-26 14:04 52.79728 -5.62527 14906 ft 307 kts 341°
2026-04-26 14:05 52.81767 -5.63593 14311 ft 307 kts 341°
2026-04-26 14:05 52.83787 -5.64640 13610 ft 302 kts 341°
2026-04-26 14:05 52.85778 -5.65675 12895 ft 298 kts 341°
2026-04-26 14:05 52.87744 -5.66705 12198 ft 295 kts 341°
2026-04-26 14:06 52.89687 -5.67721 11515 ft 291 kts 340°
2026-04-26 14:06 52.91609 -5.68731 10848 ft 289 kts 340°
2026-04-26 14:06 52.93516 -5.69734 10199 ft 287 kts 340°
2026-04-26 14:06 52.95411 -5.70731 9488 ft 285 kts 340°
2026-04-26 14:07 52.97295 -5.71725 8780 ft 283 kts 340°
2026-04-26 14:07 52.99168 -5.72711 8096 ft 282 kts 340°
2026-04-26 14:07 53.01013 -5.73680 7647 ft 272 kts 340°
2026-04-26 14:07 53.02771 -5.74602 7430 ft 257 kts 340°
2026-04-26 14:08 53.04440 -5.75481 7220 ft 246 kts 340°
2026-04-26 14:08 53.06042 -5.76329 7013 ft 238 kts 340°
2026-04-26 14:08 53.07595 -5.77152 6796 ft 231 kts 340°
2026-04-26 14:08 53.09115 -5.77957 6572 ft 227 kts 340°
2026-04-26 14:09 53.10606 -5.78750 6345 ft 223 kts 340°
2026-04-26 14:09 53.12072 -5.79526 6157 ft 219 kts 340°
2026-04-26 14:09 53.13496 -5.80279 6069 ft 211 kts 340°
2026-04-26 14:09 53.14864 -5.81002 6032 ft 202 kts 339°
2026-04-26 14:10 53.16176 -5.81698 6014 ft 194 kts 339°
2026-04-26 14:10 53.17440 -5.82370 6006 ft 187 kts 339°
2026-04-26 14:10 53.18664 -5.83022 5999 ft 183 kts 339°
2026-04-26 14:10 53.19881 -5.83683 6009 ft 190 kts 339°
2026-04-26 14:11 53.22456 -5.85080 6001 ft 200 kts 340°
2026-04-26 14:11 53.23860 -5.85835 5636 ft 224 kts 340°
2026-04-26 14:11 53.25400 -5.86626 4959 ft 238 kts 341°
2026-04-26 14:12 53.27013 -5.87444 4265 ft 246 kts 341°
2026-04-26 14:12 53.28647 -5.88285 3765 ft 243 kts 341°
2026-04-26 14:12 53.29712 -5.88843 3473 ft 240 kts 341°
2026-04-26 14:12 53.31275 -5.89668 3211 ft 230 kts 341°
2026-04-26 14:13 53.34139 -5.91182 3035 ft 203 kts 341°
2026-04-26 14:13 53.35463 -5.91892 3013 ft 197 kts 340°
2026-04-26 14:13 53.36754 -5.92580 3004 ft 192 kts 340°
2026-04-26 14:14 53.37908 -5.93545 2997 ft 181 kts 320°
2026-04-26 14:14 53.38889 -5.94853 2995 ft 180 kts 320°
2026-04-26 14:14 53.39896 -5.96215 2728 ft 190 kts 319°
2026-04-26 14:14 53.40578 -5.98039 2602 ft 186 kts 281°
2026-04-26 14:15 53.40729 -6.00115 2554 ft 174 kts 276°
2026-04-26 14:15 53.40817 -6.02055 2525 ft 161 kts 274°
2026-04-26 14:15 53.40880 -6.03859 2503 ft 150 kts 274°
2026-04-26 14:15 53.40952 -6.05553 2496 ft 142 kts 276°
2026-04-26 14:16 53.41044 -6.07172 2323 ft 133 kts 276°
2026-04-26 14:16 53.41139 -6.08709 2156 ft 134 kts 276°
2026-04-26 14:16 53.41232 -6.10280 1987 ft 136 kts 276°
2026-04-26 14:16 53.41316 -6.11871 1797 ft 138 kts 275°
2026-04-26 14:17 53.41401 -6.13473 1610 ft 139 kts 275°
2026-04-26 14:17 53.41487 -6.15084 1434 ft 139 kts 275°
2026-04-26 14:17 53.41574 -6.16706 1232 ft 139 kts 274°
2026-04-26 14:17 53.41642 -6.18228 1035 ft 128 kts 273°
2026-04-26 14:18 53.41706 -6.19687 873 ft 126 kts 275°
2026-04-26 14:18 53.41796 -6.21201 742 ft 134 kts 275°
2026-04-26 14:18 53.41897 -6.22789 556 ft 140 kts 276°
2026-04-26 14:18 53.41985 -6.24342 350 ft 127 kts 275°
2026-04-26 14:19 53.42063 -6.25748 219 ft 111 kts 275°
2026-04-26 14:19 53.42116 -6.26695 207 ft 56 kts 275°
2026-04-26 14:19 53.42160 -6.27063 206 ft 14 kts 343°
2026-04-26 14:19 53.42254 -6.27049 207 ft 13 kts
2026-04-26 14:20 53.42302 -6.26995 207 ft 7 kts 85°
2026-04-26 14:20 53.42300 -6.26916 207 ft 9 kts 94°
2026-04-26 14:20 53.42293 -6.26799 207 ft 11 kts 95°
2026-04-26 14:20 53.42285 -6.26646 207 ft 14 kts 95°
2026-04-26 14:21 53.42274 -6.26446 214 ft 20 kts 95°
2026-04-26 14:21 53.42271 -6.26221 207 ft 19 kts 79°
2026-04-26 14:21 53.42333 -6.26040 210 ft 16 kts 46°
2026-04-26 14:21 53.42419 -6.25891 207 ft 18 kts 45°
2026-04-26 14:22 53.42501 -6.25754 207 ft 16 kts 44°
2026-04-26 14:22 53.42590 -6.25604 207 ft 21 kts 46°
2026-04-26 14:22 53.42683 -6.25442 209 ft 17 kts 44°
2026-04-26 14:22 53.42769 -6.25297 216 ft 16 kts 45°
2026-04-26 14:23 53.42796 -6.25151 210 ft 15 kts 95°
2026-04-26 14:23 53.42843 -6.25005 207 ft 12 kts 43°
2026-04-26 14:23 53.42906 -6.24891 207 ft 13 kts 47°
2026-04-26 14:23 53.42941 -6.24782 207 ft 8 kts 88°
2026-04-26 14:24 53.42918 -6.24756 211 ft 5 kts 182°
2026-04-26 14:24 53.42891 -6.24760 211 ft 1 kts 185°
2026-04-26 14:24 53.42888 -6.24761 210 ft 0 kts 185°